Location: Conflandey
(47.7287°N, 6.0456°E)
Time: 03:39:20
(UTC+00:00)

YAOGAN 1 - Pass Details

Date: 24 October 2021
Orbit: 618 x 620 km, 97.9° (Epoch: 28 November)

Event Time Altitude Azimuth Distance (km) Brightness Sun altitude
Rises 18:42:54 0° 180° (S) 2,884 5.9 -22.8°
Reaches altitude 10° 18:45:08 10° 186° (S) 1,983 5.1 -23.1°
Maximum altitude 18:49:18 48° 260° (W) 815 3.5 -23.8°
Drops below altitude 10° 18:53:32 10° 336° (NNW) 1,998 5.6 -24.5°
Sets 18:55:48 0° 342° (NNW) 2,909 6.4 -24.9°
